Weather History for Hollywood, FL

Change the Weather History Date:

Saturday, May 18, 2013

  Actual Average (KFLL) Record (KFLL)
Temperature  
Mean Temperature 78 °F 80 °F  
Max Temperature 87 °F 87 °F 96 °F (2008)
Min Temperature 73 °F 75 °F 55 °F (1917)
Degree Days  
Heating Degree Days 0 0  
Month to date heating degree days 0  
Since 1 July heating degree days 112  
Cooling Degree Days 14 16  
Month to date cooling degree days 256  
Year to date cooling degree days 1203  
Growing Degree Days 28 (Base 50)    
Moisture  
Dew Point 70 °F    
Average Humidity 73    
Maximum Humidity 87    
Minimum Humidity 61    
Precipitation  
Precipitation 0.06 in 0.16 in 3.38 in (1972)
Month to date precipitation 1.98  
Year to date precipitation 14.82  
Snow  
Snow 0.00 in - - ()
Month to date snowfall  
Since 1 July snowfall  
Snow Depth -    
Sea Level Pressure  
Sea Level Pressure 30.09 in    
Wind  
Wind Speed 6 mph (SE)    
Max Wind Speed 14 mph    
Max Gust Speed 21 mph    
Visibility 10 miles    
Events Rain    
T = Trace of Precipitation, MM = Missing Value Source: NWS Daily Summary

Daily Weather History Graph

Daily Weather History Graph

Search for Another Location

Airport:

Trip Planner

Search our weather history database for the weather conditions in past years. The results will help you decide how hot, cold, wet, or windy it might be!

Date:

Astronomy

May. 18, 2013 Rise Set
Actual Time 6:33 AM EDT 8:01 PM EDT
Civil Twilight 6:08 AM EDT 8:26 PM EDT
Nautical Twilight 5:38 AM EDT 8:57 PM EDT
Astronomical Twilight 5:06 AM EDT 9:28 PM EDT
Moon 1:42 PM EDT (5/18) 1:43 AM EDT (5/18)
Length of Visible Light 14h 18m
Length of Day
13h 28m
First Quarter, 55% of the Moon is Illuminated
May 18
First Quarter
May 25
Full
May 31
Last Quarter
Jun 8
New
Jun 16
First Quarter

Hourly Weather History & Observations

Time (EDT) Temp. Heat Index Dew Point Humidity Pressure Visibility Wind Dir Wind Speed Gust Speed Precip Events Conditions
12:53 AM 78.1 °F - 70.0 °F 76% 30.10 in 10.0 mi SE 5.8 mph - N/A   Clear
1:53 AM 78.1 °F - 70.0 °F 76% 30.09 in 10.0 mi SE 3.5 mph - N/A   Mostly Cloudy
2:53 AM 77.0 °F - 71.1 °F 82% 30.07 in 10.0 mi East 4.6 mph - N/A   Partly Cloudy
3:42 AM 77.0 °F - 71.6 °F 83% 30.07 in 10.0 mi Calm Calm - N/A   Mostly Cloudy
3:53 AM 77.0 °F - 71.1 °F 82% 30.07 in 10.0 mi Calm Calm - 0.00 in Rain Light Rain
4:53 AM 75.9 °F - 71.1 °F 85% 30.08 in 10.0 mi Calm Calm - N/A   Partly Cloudy
5:53 AM 75.0 °F - 71.1 °F 87% 30.08 in 10.0 mi Calm Calm - N/A   Clear
6:53 AM 73.9 °F - 70.0 °F 87% 30.10 in 10.0 mi Calm Calm - N/A   Clear
7:53 AM 78.1 °F - 72.0 °F 81% 30.11 in 10.0 mi Calm Calm - N/A   Partly Cloudy
8:53 AM 81.0 °F 85.2 °F 72.0 °F 74% 30.12 in 10.0 mi SSE 5.8 mph - N/A   Clear
9:37 AM 82.4 °F 87.2 °F 71.6 °F 70% 30.12 in 10.0 mi Variable 4.6 mph - N/A   Overcast
9:53 AM 84.0 °F 89.0 °F 71.1 °F 65% 30.12 in 10.0 mi South 6.9 mph - N/A   Overcast
10:30 AM 84.2 °F 89.6 °F 71.6 °F 66% 30.12 in 10.0 mi SSE 9.2 mph - N/A   Scattered Clouds
10:53 AM 84.9 °F 89.4 °F 70.0 °F 61% 30.12 in 10.0 mi SE 12.7 mph 18.4 mph N/A   Scattered Clouds
11:53 AM 81.0 °F 85.2 °F 72.0 °F 74% 30.13 in 10.0 mi ESE 9.2 mph - 0.01 in Rain Light Rain
12:53 PM 82.9 °F 88.8 °F 73.0 °F 72% 30.11 in 10.0 mi ESE 13.8 mph - 0.05 in   Mostly Cloudy
1:53 PM 84.9 °F 90.1 °F 71.1 °F 63% 30.10 in 10.0 mi ESE 12.7 mph 20.7 mph N/A   Partly Cloudy
3:53 PM 82.0 °F 85.5 °F 69.1 °F 65% 30.06 in 10.0 mi SE 13.8 mph - N/A   Mostly Cloudy
4:53 PM 80.1 °F 82.9 °F 69.1 °F 69% 30.06 in 10.0 mi SE 12.7 mph - 0.00 in   Mostly Cloudy
5:53 PM 81.0 °F 83.8 °F 68.0 °F 65% 30.07 in 10.0 mi ESE 12.7 mph - N/A   Partly Cloudy
6:53 PM 81.0 °F 83.8 °F 68.0 °F 65% 30.06 in 10.0 mi ESE 13.8 mph - N/A   Partly Cloudy
7:53 PM 80.1 °F 82.3 °F 66.9 °F 64% 30.08 in 10.0 mi SE 10.4 mph - N/A   Mostly Cloudy
8:53 PM 79.0 °F - 68.0 °F 69% 30.10 in 10.0 mi SE 9.2 mph - N/A   Mostly Cloudy
9:53 PM 78.1 °F - 68.0 °F 71% 30.11 in 10.0 mi ESE 8.1 mph - N/A   Clear
10:53 PM 78.1 °F - 69.1 °F 74% 30.11 in 10.0 mi ESE 6.9 mph - N/A   Partly Cloudy
11:53 PM 77.0 °F - 69.1 °F 76% 30.11 in 10.0 mi ESE 5.8 mph - N/A   Clear